timestamp,wind_dir_avg,wind_spd_avg,wind_spd_max_dir,wind_spd_gust,battery_voltage,lat,long
2021-10-03 00:04:00+00:00,243.0,3.95,247.0,4.36,12.65,47.59359,-54.27349
2021-10-03 00:14:01+00:00,227.0,2.97,234.0,3.58,12.65,47.59359,-54.27349
2021-10-03 00:24:01+00:00,239.0,4.99,237.0,5.62,12.65,47.59359,-54.27349
2021-10-03 00:34:01+00:00,252.0,4.8,257.0,5.23,12.65,47.59359,-54.27349
2021-10-03 00:44:01+00:00,237.0,5.62,238.0,6.29,12.65,47.59359,-54.27349
2021-10-03 00:54:01+00:00,235.0,5.49,234.0,6.21,12.65,47.59359,-54.27349
2021-10-03 01:04:01+00:00,246.0,5.22,246.0,5.84,12.65,47.59359,-54.27349
2021-10-03 01:14:01+00:00,230.0,4.93,231.0,6.33,12.65,47.59359,-54.27349
2021-10-03 01:24:01+00:00,228.0,4.56,227.0,5.17,12.65,47.59359,-54.27349
2021-10-03 01:34:01+00:00,229.0,5.29,228.0,5.86,12.65,47.59359,-54.27349
2021-10-03 01:44:01+00:00,227.0,5.05,223.0,6.17,12.65,47.59359,-54.27349
2021-10-03 01:54:01+00:00,222.0,6.09,218.0,6.73,12.65,47.59359,-54.27349
2021-10-03 02:04:01+00:00,215.0,6.8,214.0,8.03,12.65,47.59359,-54.27349
2021-10-03 02:14:01+00:00,209.0,7.35,210.0,8.08,12.57,47.59359,-54.27349
2021-10-03 02:24:01+00:00,213.0,6.2,213.0,6.71,12.57,47.59359,-54.27349
2021-10-03 02:34:01+00:00,211.0,6.85,212.0,7.88,12.57,47.59359,-54.27349
2021-10-03 02:44:01+00:00,212.0,6.21,214.0,7.08,12.57,47.59359,-54.27349
2021-10-03 02:54:01+00:00,207.0,6.47,213.0,7.04,12.57,47.59359,-54.27349
2021-10-03 03:04:01+00:00,204.0,6.33,203.0,6.98,12.57,47.59359,-54.27349
2021-10-03 03:14:00+00:00,206.0,7.41,207.0,7.97,12.57,47.59359,-54.27349
2021-10-03 03:24:00+00:00,208.0,8.57,211.0,9.55,12.57,47.59359,-54.27349
2021-10-03 03:34:00+00:00,212.0,7.93,215.0,9.64,12.57,47.59359,-54.27349
2021-10-03 03:44:00+00:00,212.0,8.73,213.0,9.7,12.57,47.59359,-54.27349
2021-10-03 03:54:00+00:00,211.0,7.93,217.0,9.34,12.57,47.59359,-54.27349
2021-10-03 04:04:00+00:00,234.0,6.47,234.0,7.44,12.57,47.59359,-54.27349
2021-10-03 04:14:01+00:00,233.0,6.65,242.0,7.77,12.57,47.59359,-54.27349
2021-10-03 04:24:01+00:00,222.0,4.91,216.0,5.79,12.57,47.59359,-54.27349
2021-10-03 04:34:01+00:00,221.0,4.96,226.0,5.95,12.57,47.59359,-54.27349
2021-10-03 04:44:01+00:00,223.0,4.28,223.0,5.08,12.57,47.59359,-54.27349
2021-10-03 04:54:01+00:00,215.0,5.12,218.0,5.47,12.57,47.59359,-54.27349
2021-10-03 05:04:01+00:00,222.0,5.18,232.0,6.15,12.57,47.59359,-54.27349
2021-10-03 05:14:00+00:00,229.0,4.2,233.0,5.1,12.57,47.59359,-54.27349
2021-10-03 05:24:00+00:00,240.0,4.06,238.0,4.53,12.57,47.59359,-54.27349
2021-10-03 05:34:00+00:00,240.0,4.98,241.0,5.45,12.57,47.59359,-54.27349
2021-10-03 05:44:00+00:00,232.0,3.61,230.0,4.42,12.57,47.59359,-54.27349
2021-10-03 05:54:00+00:00,228.0,4.13,230.0,4.89,12.57,47.59359,-54.27349
2021-10-03 06:04:00+00:00,226.0,4.03,217.0,4.79,12.57,47.59359,-54.27349
2021-10-03 06:14:01+00:00,230.0,4.67,239.0,5.97,12.57,47.59359,-54.27349
2021-10-03 06:24:01+00:00,238.0,5.29,235.0,5.78,12.57,47.59359,-54.27349
2021-10-03 06:34:01+00:00,248.0,5.11,249.0,5.66,12.57,47.59359,-54.27349
2021-10-03 06:44:01+00:00,247.0,5.03,245.0,5.47,12.57,47.59359,-54.27349
2021-10-03 06:54:01+00:00,242.0,4.29,240.0,4.83,12.57,47.59359,-54.27349
2021-10-03 07:04:01+00:00,237.0,3.53,233.0,4.09,12.57,47.59359,-54.27349
2021-10-03 07:14:00+00:00,242.0,3.76,244.0,4.13,12.49,47.59359,-54.27349
2021-10-03 07:24:00+00:00,248.0,3.3,249.0,3.8,12.49,47.59359,-54.27349
2021-10-03 07:34:00+00:00,254.0,2.69,253.0,3.18,12.49,47.59359,-54.27349
2021-10-03 07:44:00+00:00,240.0,3.9,241.0,4.33,12.49,47.59359,-54.27349
2021-10-03 07:54:00+00:00,229.0,2.98,234.0,3.56,12.49,47.59359,-54.27349
2021-10-03 08:04:00+00:00,243.0,3.64,243.0,3.95,12.49,47.59359,-54.27349
2021-10-03 08:14:01+00:00,237.0,3.85,242.0,4.23,12.49,47.59359,-54.27349
2021-10-03 08:24:01+00:00,256.0,3.11,242.0,3.54,12.49,47.59359,-54.27349
2021-10-03 08:34:01+00:00,253.0,4.09,256.0,4.46,12.49,47.59359,-54.27349
2021-10-03 08:44:01+00:00,249.0,4.11,252.0,4.6,12.49,47.59359,-54.27349
2021-10-03 08:54:01+00:00,276.0,4.46,272.0,4.94,12.49,47.59359,-54.27349
2021-10-03 09:04:01+00:00,273.0,3.92,276.0,4.21,12.49,47.59359,-54.27349
2021-10-03 09:14:00+00:00,269.0,4.53,272.0,5.09,12.49,47.59359,-54.27349
2021-10-03 09:24:00+00:00,274.0,3.05,275.0,3.66,12.49,47.59359,-54.27349
2021-10-03 09:34:00+00:00,276.0,2.79,280.0,3.24,12.49,47.59359,-54.27349
2021-10-03 09:44:00+00:00,228.0,2.83,226.0,3.77,12.49,47.59359,-54.27349
2021-10-03 09:54:00+00:00,245.0,3.02,243.0,3.46,12.49,47.59359,-54.27349
2021-10-03 10:04:00+00:00,249.0,2.2,247.0,3.2,12.49,47.59359,-54.27349
2021-10-03 10:14:01+00:00,239.0,2.19,248.0,2.75,12.49,47.59359,-54.27349
2021-10-03 10:24:01+00:00,264.0,2.61,256.0,3.24,12.49,47.59359,-54.27349
2021-10-03 10:34:01+00:00,282.0,2.58,285.0,3.15,12.49,47.59359,-54.27349
2021-10-03 10:44:01+00:00,283.0,3.53,282.0,4.07,12.49,47.59359,-54.27349
2021-10-03 10:54:01+00:00,289.0,3.45,289.0,3.79,12.49,47.59359,-54.27349
2021-10-03 11:04:01+00:00,315.0,3.57,314.0,4.12,12.49,47.59359,-54.27349
2021-10-03 11:14:01+00:00,351.0,2.48,343.0,2.94,13.53,47.59359,-54.27349
2021-10-03 11:24:01+00:00,311.0,3.0,321.0,3.79,13.53,47.59359,-54.27349
2021-10-03 11:34:01+00:00,320.0,2.78,291.0,3.54,13.53,47.59359,-54.27349
2021-10-03 11:44:01+00:00,308.0,2.74,303.0,3.65,13.53,47.59359,-54.27349
2021-10-03 11:54:01+00:00,316.0,2.39,314.0,2.84,13.53,47.59359,-54.27349
2021-10-03 12:04:01+00:00,296.0,1.31,302.0,1.75,13.53,47.59359,-54.27349
2021-10-03 12:14:01+00:00,304.0,1.68,305.0,2.02,13.37,47.59359,-54.27349
2021-10-03 12:24:01+00:00,303.0,2.73,304.0,3.14,13.37,47.59359,-54.27349
2021-10-03 12:34:01+00:00,317.0,2.04,302.0,2.85,13.37,47.59359,-54.27349
2021-10-03 12:44:01+00:00,332.0,2.71,322.0,3.41,13.37,47.59359,-54.27349
2021-10-03 12:54:01+00:00,336.0,3.28,341.0,3.73,13.37,47.59359,-54.27349
2021-10-03 13:04:01+00:00,330.0,2.78,329.0,3.18,13.37,47.59359,-54.27349
2021-10-03 13:14:01+00:00,330.0,2.09,331.0,2.54,14.0,47.59359,-54.27349
2021-10-03 13:24:01+00:00,5.0,2.37,5.0,2.92,14.0,47.59359,-54.27349
2021-10-03 13:34:01+00:00,20.0,2.06,20.0,2.44,14.0,47.59359,-54.27349
2021-10-03 13:44:01+00:00,40.0,1.65,44.0,2.2,14.0,47.59359,-54.27349
2021-10-03 13:54:01+00:00,23.0,0.25,53.0,0.53,14.0,47.59359,-54.27349
2021-10-03 14:04:01+00:00,347.0,0.8,345.0,1.04,14.0,47.59359,-54.27349
2021-10-03 14:14:01+00:00,69.0,2.28,66.0,2.68,14.0,47.59359,-54.27349
2021-10-03 14:24:01+00:00,65.0,2.04,68.0,2.72,14.0,47.59359,-54.27349
2021-10-03 14:34:01+00:00,10.0,0.69,9.0,1.03,14.0,47.59359,-54.27349
2021-10-03 14:44:01+00:00,255.0,0.64,259.0,0.98,14.0,47.59359,-54.27349
2021-10-03 14:54:01+00:00,138.0,1.73,135.0,2.32,14.0,47.59359,-54.27349
2021-10-03 15:04:01+00:00,158.0,1.12,162.0,1.43,14.0,47.59359,-54.27349
2021-10-03 15:14:01+00:00,150.0,1.12,164.0,1.44,13.84,47.59359,-54.27349
2021-10-03 15:24:01+00:00,155.0,1.59,153.0,1.91,13.84,47.59359,-54.27349
2021-10-03 15:34:01+00:00,142.0,1.89,143.0,2.31,13.84,47.59359,-54.27349
2021-10-03 15:44:01+00:00,171.0,1.83,166.0,2.14,13.84,47.59359,-54.27349
2021-10-03 15:54:01+00:00,170.0,2.02,174.0,2.29,13.84,47.59359,-54.27349
2021-10-03 16:04:01+00:00,205.0,1.84,200.0,2.28,13.84,47.59359,-54.27349
2021-10-03 16:14:01+00:00,212.0,2.44,214.0,2.94,13.92,47.59359,-54.27349
2021-10-03 16:24:01+00:00,206.0,2.71,202.0,3.61,13.92,47.59359,-54.27349
2021-10-03 16:34:01+00:00,207.0,2.75,215.0,3.1,13.92,47.59359,-54.27349
2021-10-03 16:44:01+00:00,209.0,2.48,208.0,2.7,13.92,47.59359,-54.27349
2021-10-03 16:54:01+00:00,217.0,2.87,225.0,3.44,13.92,47.59359,-54.27349
2021-10-03 17:04:01+00:00,210.0,2.8,213.0,3.18,13.92,47.59359,-54.27349
2021-10-03 17:14:01+00:00,213.0,2.73,215.0,3.14,14.0,47.59359,-54.27349
2021-10-03 17:24:01+00:00,226.0,2.91,224.0,3.41,14.0,47.59359,-54.27349
2021-10-03 17:34:01+00:00,225.0,2.82,223.0,3.13,14.0,47.59359,-54.27349
2021-10-03 17:44:01+00:00,232.0,2.66,234.0,2.86,14.0,47.59359,-54.27349
2021-10-03 17:54:01+00:00,241.0,3.34,243.0,3.89,14.0,47.59359,-54.27349
2021-10-03 18:04:01+00:00,227.0,2.95,226.0,3.49,14.0,47.59359,-54.27349
2021-10-03 18:14:01+00:00,227.0,3.15,233.0,3.5,13.92,47.59359,-54.27349
2021-10-03 18:24:01+00:00,237.0,2.68,237.0,3.02,13.92,47.59359,-54.27349
2021-10-03 18:34:01+00:00,221.0,2.93,222.0,3.25,13.92,47.59359,-54.27349
2021-10-03 18:44:01+00:00,210.0,2.91,209.0,3.41,13.92,47.59359,-54.27349
2021-10-03 18:54:01+00:00,211.0,3.36,209.0,3.66,13.92,47.59359,-54.27349
2021-10-03 19:04:01+00:00,216.0,3.13,213.0,3.49,13.92,47.59359,-54.27349
2021-10-03 19:14:01+00:00,213.0,3.21,215.0,3.45,13.84,47.59359,-54.27349
2021-10-03 19:24:01+00:00,192.0,3.67,198.0,4.04,13.84,47.59359,-54.27349
2021-10-03 19:34:01+00:00,203.0,3.57,203.0,3.88,13.84,47.59359,-54.27349
2021-10-03 19:44:01+00:00,201.0,3.42,201.0,3.65,13.84,47.59359,-54.27349
2021-10-03 19:54:01+00:00,202.0,4.0,201.0,4.21,13.84,47.59359,-54.27349
2021-10-03 20:04:01+00:00,206.0,4.09,205.0,4.45,13.84,47.59359,-54.27349
2021-10-03 20:14:01+00:00,213.0,4.06,215.0,4.47,13.44,47.59359,-54.27349
2021-10-03 20:24:01+00:00,207.0,4.21,208.0,4.67,13.44,47.59359,-54.27349
2021-10-03 20:34:01+00:00,216.0,3.76,216.0,4.32,13.44,47.59359,-54.27349
2021-10-03 20:44:01+00:00,212.0,3.01,214.0,3.34,13.44,47.59359,-54.27349
2021-10-03 20:54:01+00:00,219.0,3.03,216.0,3.38,13.44,47.59359,-54.27349
2021-10-03 21:04:01+00:00,211.0,3.52,209.0,4.09,13.44,47.59359,-54.27349
2021-10-03 21:14:01+00:00,224.0,2.92,226.0,3.22,12.97,47.59359,-54.27349
2021-10-03 21:24:01+00:00,220.0,2.71,224.0,3.13,12.97,47.59359,-54.27349
2021-10-03 21:34:01+00:00,229.0,1.95,232.0,2.25,12.97,47.59359,-54.27349
2021-10-03 21:44:01+00:00,233.0,1.83,234.0,2.09,12.97,47.59359,-54.27349
2021-10-03 21:54:01+00:00,256.0,2.23,256.0,2.57,12.97,47.59359,-54.27349
2021-10-03 22:04:01+00:00,268.0,1.52,271.0,1.74,12.97,47.59359,-54.27349
2021-10-03 22:14:01+00:00,302.0,1.95,293.0,2.44,12.65,47.59359,-54.27349
2021-10-03 22:24:01+00:00,327.0,2.38,328.0,2.61,12.65,47.59359,-54.27349
2021-10-03 22:34:01+00:00,332.0,4.07,336.0,4.34,12.65,47.59359,-54.27349
2021-10-03 22:44:01+00:00,329.0,3.67,326.0,4.31,12.65,47.59359,-54.27349
2021-10-03 22:54:01+00:00,331.0,3.36,329.0,3.79,12.65,47.59359,-54.27349
2021-10-03 23:04:01+00:00,336.0,3.73,334.0,4.07,12.65,47.59359,-54.27349
2021-10-03 23:14:00+00:00,331.0,4.11,328.0,4.58,12.65,47.59359,-54.27349
2021-10-03 23:24:00+00:00,330.0,3.99,334.0,4.59,12.65,47.59359,-54.27349
2021-10-03 23:34:00+00:00,336.0,4.27,334.0,4.71,12.65,47.59359,-54.27349
2021-10-03 23:44:00+00:00,355.0,5.47,352.0,5.96,12.65,47.59359,-54.27349
2021-10-03 23:54:00+00:00,12.0,6.1,14.0,7.2,12.65,47.59359,-54.27349
